Weather History for KBRO - March, 2014

Change the Weather History Date:

Wednesday, March 5, 2014

  Actual Average Record
Temperature  
Mean Temperature 57 °F 67 °F  
Max Temperature 67 °F 77 °F 88 °F (1943)
Min Temperature 46 °F 58 °F 28 °F (1901)
Degree Days  
Heating Degree Days 8 2  
Month to date heating degree days 42 10  
Since 1 July heating degree days 766 513  
Cooling Degree Days 0 4  
Month to date cooling degree days 19 20  
Year to date cooling degree days 139 161  
Growing Degree Days 4 (Base 50)    
Moisture  
Dew Point 54 °F    
Average Humidity 92    
Maximum Humidity 100    
Minimum Humidity 84    
Precipitation  
Precipitation 0.01 in 0.03 in 1.64 in (1932)
Month to date precipitation 0.28 0.18  
Year to date precipitation 1.04 2.53  
Sea Level Pressure  
Sea Level Pressure 29.99 in    
Wind  
Wind Speed 8 mph (NNW)    
Max Wind Speed 16 mph    
Max Gust Speed 21 mph    
Visibility 9 miles    
Events Rain    
T = Trace of Precipitation, MM = Missing Value Source: NWS Daily Summary

Daily Weather History Graph

Daily Weather History Graph

Search for Another Location

Airport or City:

Trip Planner

Search our weather history database for the weather conditions in past years. The results will help you decide how hot, cold, wet, or windy it might be!

Date:

Astronomy

Mar. 05, 2014 Rise Set
Actual Time 6:49 AM CST 6:33 PM CST
Civil Twilight 6:26 AM CST 6:56 PM CST
Nautical Twilight 5:59 AM CST 7:23 PM CST
Astronomical Twilight 5:32 AM CST 7:50 PM CST
Moon 9:45 AM CST (3/5) 11:11 PM CST (3/5)
Length of Visible Light 12h 30m
Length of Day
11h 44m
Waxing Crescent, 23% of the Moon is Illuminated
Mar 5
Waxing Crescent
Mar 8
First Quarter
Mar 16
Full
Mar 23
Last Quarter
Mar 30
New

Hourly Weather History & Observations

Time (CST) Temp. Windchill Dew Point Humidity Pressure Visibility Wind Dir Wind Speed Gust Speed Precip Events Conditions
12:53 AM 46.0 °F 41.9 °F 45.0 °F 96% 30.02 in 10.0 mi NW 8.1 mph - N/A   Overcast
1:53 AM 46.9 °F - 45.0 °F 93% 30.01 in 9.0 mi NNW 6.9 mph - 0.00 in   Overcast
2:12 AM 46.4 °F 42.4 °F 46.4 °F 100% 30.00 in 8.0 mi NNW 8.1 mph - 0.00 in Rain Light Rain
2:53 AM 46.9 °F - 46.0 °F 97% 29.99 in 8.0 mi NNW 5.8 mph - 0.01 in Rain Light Rain
3:53 AM 48.0 °F - 46.9 °F 96% 29.96 in 10.0 mi NNW 6.9 mph - 0.00 in   Overcast
4:53 AM 48.0 °F - 46.9 °F 96% 29.96 in 10.0 mi NNW 8.1 mph - N/A   Overcast
5:53 AM 48.9 °F - 46.9 °F 93% 29.97 in 10.0 mi North 8.1 mph - N/A   Overcast
6:53 AM 48.9 °F - 46.9 °F 93% 29.98 in 9.0 mi North 6.9 mph - N/A   Overcast
7:53 AM 50.0 °F - 48.9 °F 96% 29.99 in 5.0 mi North 6.9 mph - N/A   Overcast
8:53 AM 52.0 °F - 51.1 °F 97% 30.00 in 7.0 mi North 6.9 mph - N/A   Overcast
9:53 AM 55.9 °F - 54.0 °F 93% 30.00 in 9.0 mi NNW 11.5 mph - N/A   Overcast
10:21 AM 57.2 °F - 53.6 °F 88% 30.01 in 10.0 mi NNW 5.8 mph - N/A   Overcast
10:53 AM 59.0 °F - 55.9 °F 90% 30.00 in 10.0 mi NNW 4.6 mph - N/A   Overcast
11:41 AM 62.6 °F - 57.2 °F 82% 29.99 in 10.0 mi NW 8.1 mph - N/A   Overcast
11:53 AM 64.9 °F - 59.0 °F 81% 29.98 in 10.0 mi North 8.1 mph - N/A   Mostly Cloudy
12:44 PM 62.6 °F - 57.2 °F 82% 29.97 in 10.0 mi NW 12.7 mph - N/A   Overcast
12:49 PM 60.8 °F - 55.4 °F 82% 29.97 in 10.0 mi NW 12.7 mph - N/A   Overcast
12:53 PM 60.1 °F - 55.9 °F 86% 29.97 in 10.0 mi NNW 12.7 mph - N/A   Overcast
1:15 PM 59.0 °F - 55.4 °F 88% 29.96 in 10.0 mi NW 11.5 mph - N/A   Overcast
1:53 PM 57.0 °F - 54.0 °F 89% 29.95 in 10.0 mi NW 12.7 mph - N/A   Overcast
2:53 PM 55.9 °F - 53.1 °F 90% 29.94 in 8.0 mi NNW 12.7 mph 18.4 mph N/A   Overcast
3:53 PM 57.9 °F - 55.0 °F 90% 29.93 in 10.0 mi North 6.9 mph - N/A   Overcast
4:03 PM 59.0 °F - 55.4 °F 88% 29.93 in 10.0 mi North 9.2 mph - N/A   Overcast
4:20 PM 60.8 °F - 55.4 °F 82% 29.94 in 10.0 mi North 5.8 mph - N/A   Overcast
4:53 PM 61.0 °F - 57.0 °F 87% 29.94 in 10.0 mi North 5.8 mph - N/A   Overcast
5:10 PM 62.6 °F - 57.2 °F 82% 29.93 in 10.0 mi North 5.8 mph - N/A   Overcast
5:39 PM 60.8 °F - 55.4 °F 82% 29.94 in 10.0 mi North 6.9 mph - N/A   Mostly Cloudy
5:53 PM 60.1 °F - 55.9 °F 86% 29.94 in 10.0 mi North 10.4 mph - N/A   Overcast
6:13 PM 59.0 °F - 55.4 °F 88% 29.95 in 10.0 mi North 9.2 mph - N/A   Overcast
6:53 PM 57.9 °F - 57.0 °F 97% 29.98 in 7.0 mi North 9.2 mph - N/A   Overcast
7:53 PM 57.9 °F - 55.9 °F 93% 30.00 in 9.0 mi North 9.2 mph - N/A   Overcast
8:21 PM 57.2 °F - 55.4 °F 94% 30.01 in 9.0 mi North 6.9 mph - N/A   Overcast
8:50 PM 57.2 °F - 57.2 °F 100% 30.02 in 9.0 mi NNW 6.9 mph - N/A   Overcast
8:53 PM 57.9 °F - 57.0 °F 97% 30.01 in 9.0 mi North 6.9 mph - N/A   Overcast
9:14 PM 57.2 °F - 57.2 °F 100% 30.02 in 9.0 mi North 4.6 mph - N/A   Overcast
9:39 PM 59.0 °F - 57.2 °F 94% 30.04 in 9.0 mi NNW 5.8 mph - N/A   Overcast
9:53 PM 59.0 °F - 57.0 °F 93% 30.04 in 9.0 mi NNW 5.8 mph - N/A   Overcast
10:53 PM 59.0 °F - 57.9 °F 96% 30.06 in 7.0 mi NW 5.8 mph - N/A   Overcast
11:07 PM 59.0 °F - 57.2 °F 94% 30.07 in 7.0 mi NNW 8.1 mph - N/A   Overcast
11:19 PM 59.0 °F - 57.2 °F 94% 30.07 in 6.0 mi NNW 8.1 mph - N/A   Overcast
11:53 PM 59.0 °F - 57.9 °F 96% 30.07 in 6.0 mi NNW 5.8 mph - N/A   Overcast